Regional Weather Roundup
Issued by NWS Northern Indiana

Home | Current Version | Previous Version | Text Only | Print | Product List | Glossary Off
Versions: 1 2 3 4 5 6 7 8 9 10 11 12 13 14 15 16 17 18 19 20 21 22 23 24 25 26 27 28 29 30 31 32 33 34 35 36 37 38 39 40 41 42 43 44 45 46 47 48 49 50

000
ASUS43 KIWX 290210
RWRIWX

KIWX WEATHER ROUNDUP
NATIONAL WEATHER SERVICE NORTHERN INDIANA
1000 PM EDT TUE MAR 28 2017

NOTE: "FAIR" INDICATES FEW OR NO CLOUDS BELOW 12,000 FEET WITH NO
SIGNIFICANT WEATHER AND/OR OBSTRUCTIONS TO VISIBILITY.

* THESE STATIONS ARE NOT UNDER NWS QUALITY CONTROL. THEY ALSO MAY NOT
  REPORT WEATHER SUCH AS PRECIPITATION OR FOG.

INZ001>027-290300-
NORTHERN INDIANA

CITY           SKY/WX    TMP DP  RH WIND       PRES   REMARKS
GARY*          CLOUDY    41  37  87 VRB5      30.20S
VALPARAISO     CLOUDY    42  39  89 NE5       30.19R
MICHIGAN CITY* CLOUDY    37  37 100 CALM      30.20R
LAPORTE*       CLOUDY    40  38  92 N6        30.19R
KNOX*          CLOUDY    41  30  65 N6        30.18R
SOUTH BEND     CLOUDY    43  39  86 N6        30.19R
GOSHEN         CLOUDY    46  38  73 NE14      30.18R
MONTICELLO*    CLOUDY    44  41  90 N5        30.17R
LOGANSPORT*    CLOUDY    46  41  81 E7        30.18R
ROCHESTER*     CLOUDY    48  43  81 NE3       30.18R
WARSAW*        CLOUDY    45  39  81 NE9       30.18R
ANGOLA*        PTCLDY    43  39  87 E7        30.19R
FORT WAYNE     CLOUDY    49  41  74 NE8       30.17R
HUNTINGTON*    CLOUDY    47  43  84 NE6       30.17R
PERU/GRISSOM   CLOUDY    48  46  92 NE8       30.15R
MARION*        CLOUDY    47  45  91 NE8       30.17R

$$
INZ028>050-290300-
CENTRAL INDIANA

CITY           SKY/WX    TMP DP  RH WIND       PRES   REMARKS
LAFAYETTE      CLOUDY    45  41  86 N6        30.17R
KOKOMO*        CLOUDY    48  44  86 NE7       30.17R
MUNCIE*        CLOUDY    50  47  89 E6        30.15R FOG
INDIANAPOLIS   CLOUDY    51  44  77 N12       30.14R

$$
MIZ043>046-050>051-056>058-064>065-071>073-077>080-290300-
SOUTHWEST LOWER MICHIGAN

CITY           SKY/WX    TMP DP  RH WIND       PRES   REMARKS
BATTLE CREEK   CLEAR     39  35  86 CALM      30.20R
BENTON HARBOR  CLEAR     37  34  89 VRB3      30.21R
COLDWATER*     CLEAR     39  36  89 CALM      30.19R
HILLSDALE*     CLEAR     36  34  93 CALM      30.18R
HOLLAND        CLEAR     37  34  89 W3        30.21R
GRAND RAPIDS   CLEAR     41  36  82 CALM      30.20R
KALAMAZOO      CLEAR     39  33  79 CALM      30.20R
STURGIS*       CLEAR     40  38  90 NE3       30.18R
THREE RIVERS*  FAIR      39  37  89 CALM      30.20R

$$
OHZ001>008-015>018-024>025-290300-
NORTHWEST OHIO

CITY           SKY/WX    TMP DP  RH WIND       PRES   REMARKS
WAUSEON*       CLOUDY    43  39  87 N5        30.19R
DEFIANCE       CLOUDY    45  39  79 NE7       30.19R
FINDLAY        CLOUDY    48  38  68 NE6       30.16R
TOLEDO EXPRESS PTCLDY    44  39  82 N6        30.18R
TOLEDO METCALF MOCLDY    46  40  79 N3        30.18R
LIMA           CLOUDY    46  43  89 NE6       30.16R

$$
AND FOR LAKE MICHIGAN COASTAL AND OPEN LAKE BUOY OBSERVATIONS

STATION/POSITION TEMP    WIND        PRES    VSBY  WAVE
                 AIR SEA DIR/SP/G                  HT/PER
                 (F)     (DEG/KT/KT) (MB)    (MI)  (FT/S)
CALUMET HARBOR    37     350/  7/ 10 1021.8R
MICHIGAN CITY     38      30/  8/  8   N/A
BURNS HARBOR      39      40/  7/  8 1023.0R
SAINT JOSEPH      38      20/  5/  8 1022.7

$$
&&




USA.gov is the U.S. government's official web portal to all federal, state and local government web resources and services.